User: anonymous   Login
Location: B?dargowo
(53.3916°N, 14.4413°E)
Time: 22:05:40
(UTC+00:00)
Language:

IRIDIUM 33 DEB - Orbit

View from above orbital plane
View from above orbital plane
View from above satellite
View from above satellite

Ground track
Ground track

The orbit data is extracted from the following two-line orbital elements,

1 33953U 97051BN  24052.53142675  .00004448  00000-0  12657-2 0  9994
2 33953  86.3956 337.7235 0022569 136.3318  38.7084 14.45003160787827
Epoch (UTC): 21 February 2024 12:45:15
Eccentricity: 0.0022569
inclination: 86.3956°
perigee height: 726 km
apogee height: 758 km
right ascension of ascending node: 337.7235°
argument of perigee: 136.3318°
revolutions per day: 14.45003160
mean anomaly at epoch: 38.7084°
orbit number at epoch: 78782

The dashed part of the orbit path shows where the satellite is in the earth's shadow,  

DLR